Weather History for Eveleth, MN

Change the Weather History Date:

Monday, November 19, 2012

  Actual Average Record
Temperature  
Mean Temperature 42 °F -  
Max Temperature 53 °F 32 °F 53 °F (2012)
Min Temperature 30 °F 17 °F -8 °F (1989)
Degree Days  
Heating Degree Days 24    
Moisture  
Dew Point 33 °F    
Average Humidity 81    
Maximum Humidity 100    
Minimum Humidity 47    
Precipitation  
Precipitation 0.00 in - - ()
Sea Level Pressure  
Sea Level Pressure 30.03 in    
Wind  
Wind Speed 2 mph (SSW)    
Max Wind Speed 10 mph    
Max Gust Speed -    
Visibility 9 miles    
Events Thunderstorm    
Averages and records for this station are not official NWS values.
T = Trace of Precipitation, MM = Missing Value Source: NWS Daily Summary

Daily Weather History Graph

Daily Weather History Graph

Search for Another Location

Airport:

Trip Planner

Search our weather history database for the weather conditions in past years. The results will help you decide how hot, cold, wet, or windy it might be!

Date:

Astronomy

Nov. 19, 2012 Rise Set
Actual Time 7:21 AM CST 4:29 PM CST
Civil Twilight 6:47 AM CST 5:03 PM CST
Nautical Twilight 6:09 AM CST 5:40 PM CST
Astronomical Twilight 5:33 AM CST 6:17 PM CST
Moon 12:14 PM CST (11/19) 11:08 PM CST (11/19)
Length of Visible Light 10h 16m
Length of Day
9h 08m
Waxing Crescent, 41% of the Moon is Illuminated
Nov 19
Waxing Crescent
Nov 20
First Quarter
Nov 28
Full
Dec 6
Last Quarter
Dec 13
New

Hourly Weather History & Observations

Time (CST) Temp. Windchill Dew Point Humidity Pressure Visibility Wind Dir Wind Speed Gust Speed Precip Events Conditions
12:09 AM - - - N/A% 30.05 in 4.0 mi East 3.5 mph - N/A   Clear
12:30 AM 32.0 °F - 32.0 °F 100% 30.05 in 7.0 mi Calm Calm - N/A   Clear
12:50 AM 32.0 °F - 32.0 °F 100% 30.05 in 7.0 mi Calm Calm - N/A   Clear
1:09 AM 32.0 °F - 32.0 °F 100% 30.04 in 7.0 mi Calm Calm - N/A   Scattered Clouds
1:30 AM 33.8 °F - 32.0 °F 93% 30.04 in 10.0 mi Calm Calm - N/A   Mostly Cloudy
1:49 AM 32.0 °F - 30.2 °F 93% 30.04 in 10.0 mi Calm Calm - N/A   Mostly Cloudy
2:09 AM 33.8 °F - 32.0 °F 93% 30.04 in 10.0 mi Calm Calm - N/A   Scattered Clouds
2:30 AM 35.6 °F - 32.0 °F 87% 30.04 in 10.0 mi Calm Calm - N/A   Mostly Cloudy
2:49 AM 35.6 °F - 32.0 °F 87% 30.04 in 10.0 mi Calm Calm - N/A   Scattered Clouds
3:09 AM 35.6 °F - 32.0 °F 87% 30.03 in 10.0 mi Calm Calm - N/A   Scattered Clouds
3:30 AM 33.8 °F - 32.0 °F 93% 30.03 in 10.0 mi Calm Calm - N/A   Mostly Cloudy
3:49 AM 35.6 °F - 32.0 °F 87% 30.03 in 10.0 mi Calm Calm - N/A   Scattered Clouds
4:09 AM 33.8 °F - 32.0 °F 93% 30.03 in 10.0 mi Calm Calm - N/A   Clear
4:29 AM 32.0 °F - 30.2 °F 93% 30.03 in 10.0 mi Calm Calm - N/A   Clear
4:49 AM 32.0 °F - 32.0 °F 100% 30.03 in 7.0 mi Calm Calm - N/A   Clear
5:10 AM 32.0 °F - 32.0 °F 100% 30.03 in 7.0 mi Calm Calm - N/A   Clear
5:29 AM 32.0 °F - 32.0 °F 100% 30.03 in 7.0 mi Calm Calm - N/A   Clear
5:49 AM 32.0 °F - 32.0 °F 100% 30.03 in 7.0 mi Calm Calm - N/A   Clear
6:10 AM 32.0 °F - 32.0 °F 100% 30.03 in 7.0 mi Calm Calm - N/A   Clear
6:29 AM 30.2 °F - 30.2 °F 100% 30.03 in 3.0 mi Calm Calm - N/A   Clear
6:49 AM 32.0 °F - 30.2 °F 93% 30.03 in 4.0 mi Calm Calm - N/A   Clear
7:29 AM 32.0 °F 28.7 °F 32.0 °F 100% 30.03 in 4.0 mi ENE 3.5 mph - N/A   Scattered Clouds
7:50 AM 30.2 °F 26.7 °F 30.2 °F 100% 30.03 in 3.0 mi ENE 3.5 mph - N/A   Scattered Clouds
8:09 AM 30.2 °F - 28.4 °F 93% 30.03 in 7.0 mi Calm Calm - N/A Thunderstorm Scattered Clouds
8:29 AM 32.0 °F - 32.0 °F 100% 30.03 in 5.0 mi Calm Calm - N/A   Scattered Clouds
8:50 AM 32.0 °F - 32.0 °F 100% 30.03 in 5.0 mi Calm Calm - N/A   Mostly Cloudy
9:09 AM 35.6 °F - 35.6 °F 100% 30.03 in 10.0 mi Calm Calm - N/A   Overcast
9:29 AM 39.2 °F - 35.6 °F 87% 30.03 in 10.0 mi Calm Calm - N/A   Overcast
9:50 AM 42.8 °F 41.1 °F 33.8 °F 70% 30.03 in 10.0 mi South 3.5 mph - N/A   Overcast
10:09 AM 42.8 °F 41.1 °F 33.8 °F 70% 30.03 in 10.0 mi SSE 3.5 mph - N/A   Overcast
10:29 AM 44.6 °F 43.1 °F 33.8 °F 66% 30.03 in 10.0 mi South 3.5 mph - N/A   Overcast
10:50 AM 46.4 °F 45.2 °F 32.0 °F 57% 30.02 in 10.0 mi SSW 3.5 mph - N/A   Overcast
11:09 AM 46.4 °F 43.5 °F 32.0 °F 57% 30.01 in 10.0 mi South 5.8 mph - N/A   Overcast
11:29 AM 48.2 °F - 33.8 °F 58% 30.01 in 10.0 mi South 5.8 mph - N/A   Overcast
11:50 AM 51.8 °F - 33.8 °F 50% 30.00 in 10.0 mi South 8.1 mph - N/A   Overcast
12:09 PM 51.8 °F - 33.8 °F 50% 29.99 in 10.0 mi SSW 8.1 mph - N/A   Scattered Clouds
12:29 PM 53.6 °F - 35.6 °F 51% 29.99 in 10.0 mi SSW 8.1 mph - N/A   Scattered Clouds
1:09 PM 53.6 °F - 33.8 °F 47% 29.98 in 10.0 mi SW 9.2 mph - N/A   Scattered Clouds
1:29 PM 51.8 °F - 33.8 °F 50% 29.98 in 10.0 mi WSW 5.8 mph - N/A   Overcast
1:50 PM 51.8 °F - 33.8 °F 50% 29.98 in 10.0 mi South 9.2 mph - N/A   Overcast
2:09 PM 51.8 °F - 33.8 °F 50% 29.98 in 10.0 mi South 8.1 mph - N/A   Overcast
2:30 PM 51.8 °F - 35.6 °F 54% 29.98 in 10.0 mi South 6.9 mph - N/A   Overcast
2:50 PM 51.8 °F - 35.6 °F 54% 29.99 in 10.0 mi South 5.8 mph - N/A   Overcast
3:09 PM 51.8 °F - 33.8 °F 50% 29.99 in 10.0 mi South 5.8 mph - N/A   Mostly Cloudy
3:30 PM 51.8 °F - 35.6 °F 54% 30.00 in 10.0 mi SSW 10.4 mph - N/A   Scattered Clouds
3:50 PM 51.8 °F - 35.6 °F 54% 30.00 in 10.0 mi SSW 5.8 mph - N/A   Clear
4:09 PM 50.0 °F - 35.6 °F 58% 30.01 in 10.0 mi SSW 4.6 mph - N/A   Clear
4:30 PM 46.4 °F 44.3 °F 33.8 °F 62% 30.01 in 10.0 mi SSW 4.6 mph - N/A   Clear
4:50 PM 44.6 °F 43.1 °F 33.8 °F 66% 30.01 in 10.0 mi SSW 3.5 mph - N/A   Clear
5:09 PM 42.8 °F - 33.8 °F 70% 30.01 in 10.0 mi Calm Calm - N/A   Clear
5:30 PM 39.2 °F - 32.0 °F 75% 30.02 in 10.0 mi Calm Calm - N/A   Clear
5:50 PM 37.4 °F - 32.0 °F 81% 30.02 in 10.0 mi Calm Calm - N/A   Clear
6:09 PM 35.6 °F - 32.0 °F 87% 30.02 in 10.0 mi Calm Calm - N/A   Clear
6:30 PM 33.8 °F - 32.0 °F 93% 30.03 in 10.0 mi Calm Calm - N/A   Clear
6:50 PM 33.8 °F - 32.0 °F 93% 30.03 in 10.0 mi Calm Calm - N/A   Clear
7:09 PM 32.0 °F - 30.2 °F 93% 30.03 in 10.0 mi Calm Calm - N/A   Clear
7:30 PM 32.0 °F - 32.0 °F 100% 30.04 in 10.0 mi Calm Calm - N/A   Clear
7:50 PM 32.0 °F - 30.2 °F 93% 30.03 in 10.0 mi Calm Calm - N/A   Clear
8:09 PM 32.0 °F - 32.0 °F 100% 30.03 in 10.0 mi Calm Calm - N/A   Clear
8:30 PM 32.0 °F - 30.2 °F 93% 30.03 in 10.0 mi Calm Calm - N/A   Clear
8:49 PM 32.0 °F - 32.0 °F 100% 30.03 in 10.0 mi Calm Calm - N/A   Clear
9:09 PM 35.6 °F 31.7 °F 33.8 °F 93% 30.04 in 10.0 mi NW 4.6 mph - N/A   Clear
9:30 PM 39.2 °F 34.2 °F 33.8 °F 81% 30.05 in 10.0 mi NW 6.9 mph - N/A   Clear
9:49 PM 39.2 °F 34.2 °F 33.8 °F 81% 30.05 in 10.0 mi NW 6.9 mph - N/A   Clear
10:09 PM 37.4 °F 31.4 °F 33.8 °F 87% 3.06 in 10.0 mi NNW 8.1 mph - N/A   Clear
10:30 PM 37.4 °F 33.8 °F 32.0 °F 81% 30.06 in 10.0 mi NNW 4.6 mph - N/A   Clear
10:48 PM 35.6 °F 30.7 °F 32.0 °F 87% 30.06 in 10.0 mi NW 5.8 mph - N/A   Clear
11:10 PM 35.6 °F 31.7 °F 32.0 °F 87% 30.06 in 10.0 mi NNW 4.6 mph - N/A   Clear
11:29 PM 35.6 °F 32.8 °F 32.0 °F 87% 30.06 in 10.0 mi NNW 3.5 mph - N/A   Clear
11:50 PM 35.6 °F - 32.0 °F 87% 30.07 in 10.0 mi Calm Calm - N/A   Clear